Grand Junction, CO

7:21 AM MDT on September 19, 2019 (GMT -0600)
Walker

Weather History for KGJT - April, 2019

Change the Weather History Date:

Monday, April 15, 2019

  Actual Average Record
Temperature  
Mean Temperature 61 °F 51 °F  
Max Temperature 74 °F 65 °F 84 °F (1962)
Min Temperature 48 °F 38 °F 24 °F (1893)
Degree Days  
Heating Degree Days 4 14  
Month to date heating degree days 195 234  
Since 1 July heating degree days 5303 5266  
Cooling Degree Days 0 0  
Month to date cooling degree days 0 0  
Year to date cooling degree days 0 0  
Growing Degree Days 10 (Base 50)    
Moisture  
Dew Point 25 °F    
Average Humidity 30    
Maximum Humidity 46    
Minimum Humidity 13    
Precipitation  
Precipitation 0.00 in 0.03 in 0.47 in (1915)
Month to date precipitation 0.05 0.48  
Year to date precipitation 3.78 2.52  
Snow  
Snow 0.00 in 0.00 in 1.50 in (1924)
Month to date snowfall T 0.7  
Since 1 July snowfall 17.4 18.8  
Snow Depth 0.00 in    
Sea Level Pressure  
Sea Level Pressure 29.64 in    
Wind  
Wind Speed 9 mph (SSE)    
Max Wind Speed 23 mph    
Max Gust Speed 30 mph    
Visibility 10 miles    
Events      
T = Trace of Precipitation, MM = Missing Value Source: NWS Daily Summary

Daily Weather History Graph

Daily Weather History Graph

Search for Another Location

Airport or City:

Astronomy

Apr. 15, 2019 Rise Set
Actual Time 6:37 AM MDT 7:51 PM MDT
Civil Twilight 6:09 AM MDT 8:19 PM MDT
Nautical Twilight 5:36 AM MDT 8:52 PM MDT
Astronomical Twilight 5:02 AM MDT 9:26 PM MDT
Moon 3:39 PM MDT (4/15) 4:41 AM MDT (4/15)
Length of Visible Light 14h 09m
Length of Day
13h 13m
Waxing Gibbous, 82% of the Moon is Illuminated
Apr 15
Waxing Gibbous
Apr 19
Full
Apr 26
Last Quarter
May 4
New
May 11
First Quarter

Hourly Weather History & Observations

Time (MDT) Temp. Dew Point Humidity Pressure Visibility Wind Dir Wind Speed Gust Speed Precip Events Conditions
12:53 AM 55.9 °F 25.0 °F 30% 29.65 in 10.0 mi ESE 6.9 mph - N/A   Clear
1:53 AM 54.0 °F 26.1 °F 34% 29.66 in 10.0 mi East 5.8 mph - N/A   Clear
2:53 AM 55.0 °F 26.1 °F 33% 29.65 in 10.0 mi SE 10.4 mph - N/A   Clear
3:53 AM 54.0 °F 26.1 °F 34% 29.65 in 10.0 mi ESE 8.1 mph - N/A   Clear
4:53 AM 54.0 °F 26.1 °F 34% 29.65 in 10.0 mi ESE 10.4 mph - N/A   Clear
5:53 AM 55.0 °F 26.1 °F 33% 29.66 in 10.0 mi South 6.9 mph - N/A   Clear
6:53 AM 50.0 °F 27.0 °F 41% 29.69 in 10.0 mi Calm Calm - N/A   Clear
7:53 AM 50.0 °F 30.9 °F 48% 29.72 in 10.0 mi NE 4.6 mph - N/A   Scattered Clouds
8:53 AM 60.1 °F 28.9 °F 31% 29.71 in 10.0 mi SSE 4.6 mph - N/A   Clear
9:53 AM 64.0 °F 27.0 °F 25% 29.70 in 10.0 mi SSE 10.4 mph 20.7 mph N/A   Clear
10:53 AM 66.0 °F 27.0 °F 23% 29.68 in 10.0 mi SSE 4.6 mph - N/A   Clear
11:53 AM 68.0 °F 28.9 °F 23% 29.67 in 10.0 mi NNW 8.1 mph - N/A   Partly Cloudy
12:53 PM 69.1 °F 28.9 °F 22% 29.65 in 10.0 mi WNW 6.9 mph - N/A   Partly Cloudy
1:53 PM 72.0 °F 28.9 °F 20% 29.63 in 10.0 mi WSW 20.7 mph 27.6 mph N/A   Scattered Clouds
2:53 PM 71.1 °F 27.0 °F 19% 29.61 in 10.0 mi South 11.5 mph 19.6 mph N/A   Partly Cloudy
3:53 PM 72.0 °F 23.0 °F 16% 29.58 in 10.0 mi South 9.2 mph - N/A   Partly Cloudy
4:53 PM 71.1 °F 24.1 °F 17% 29.59 in 10.0 mi SSW 18.4 mph 25.3 mph N/A   Clear
5:53 PM 71.1 °F 19.9 °F 14% 29.60 in 10.0 mi South 16.1 mph 26.5 mph N/A   Clear
6:53 PM 68.0 °F 15.1 °F 13% 29.62 in 10.0 mi SSW 11.5 mph - N/A   Clear
7:53 PM 64.9 °F 18.0 °F 16% 29.62 in 10.0 mi SSE 6.9 mph - N/A   Clear
8:53 PM 62.1 °F 19.9 °F 20% 29.62 in 10.0 mi SSE 6.9 mph - N/A   Clear
9:53 PM 62.1 °F 21.0 °F 21% 29.62 in 10.0 mi SSE 9.2 mph - N/A   Clear
10:53 PM 57.9 °F 23.0 °F 26% 29.62 in 10.0 mi ESE 10.4 mph - N/A   Clear
11:53 PM 57.0 °F 21.9 °F 26% 29.61 in 10.0 mi SE 12.7 mph - N/A   Clear